Skip Page Navigation
NASA JPL Caltech
NASA Logo - Jet Propulsion Laboratory + View the NASA Portal
+ Center for Near-Earth Object Studies
JPL Home Earth Solar System Stars & Galaxies Technology
JPL Solar System Dynamics
BODIES ORBITS EPHEMERIDES TOOLS PHYSICAL DATA DISCOVERY FAQ SITE MAP
IMPORTANT: The SSD Announcement email list is now available. Major changes are coming in the near future, including possible hostname and/or URL changes. To be notified of such changes, subscribe to this email list.

Please visit this page for more details.


JPL Small-Body Database Browser
Search: [ help ]  
63500 (2001 OS69)
Classification: Main-belt Asteroid          SPK-ID: 2063500
Ephemeris | Orbit Diagram | Orbital Elements | Mission Design | Physical Parameters | Discovery Circumstances | Close-Approach Data ]

[ show orbit diagram ]
Orbital Elements at Epoch 2459000.5 (2020-May-31.0) TDB
Reference: JPL 19 (heliocentric ecliptic J2000)
 Element Value Uncertainty (1-sigma)   Units 
e .2589275682128739 4.3461e-08  
a 2.610158848994535 1.017e-08 au
q 1.934316765575066 1.1158e-07 au
i 5.15588736702234 3.8488e-06 deg
node 134.2390748943046 7.0278e-05 deg
peri 199.6316970119207 7.1031e-05 deg
M 166.1877992251174 1.2145e-05 deg
tp 2458289.457646554957
(2018-Jun-19.95764655)
5.0327e-05 TDB
period 1540.277014520617
4.22
9.002e-06
2.465e-08
d
yr
n .2337241915617649 1.366e-09 deg/d
Q 3.286000932414004 1.2803e-08 au
  Orbit Determination Parameters
   # obs. used (total)      555  
   data-arc span      8348 days (22.86 yr)  
   first obs. used      1996-03-12  
   last obs. used      2019-01-19  
   planetary ephem.      DE431  
   SB-pert. ephem.      SB431-N16  
   condition code      0  
   norm. resid. RMS      .57724  
   source      ORB  
   producer      Otto Matic  
   solution date      2019-Jul-13 03:56:49  

Additional Information
 Earth MOID = .925017 au 
 Jupiter MOID = 2.09723 au 
 T_jup = 3.356 
[ show covariance matrix ]

Ephemeris | Orbit Diagram | Orbital Elements | Mission Design | Physical Parameters | Discovery Circumstances | Close-Approach Data ]

Physical Parameter Table
Parameter Symbol Value Units Sigma Reference Notes
absolute magnitude H 15.9   n/a MPO453024  

63500 (2001 OS69)          Discovered 2001-Jul-19 by LONEOS at Anderson Mesa
Reference: 20030614/Numbers.arcLast Updated: 2004-04-19

[ hide close-approach data ]
Close-Approach Data   ...sorted by Date/Time (TDB)
Date/Time (TDB) Time Uncertainty
(days_HH:MM)
Body Nominal Distance (au) Minimum Distance (au) Maximum Distance (au) V-relative (km/s) V-infinity (km/s) JD (TDB) Time Uncertainty (minutes) Semi-major axis (km) Semi-minor axis (km) range-LOV angle (deg) N-sigma BP Orbit Ref. Reference Modified
2002-Nov-22 13:02 < 00:01 Inter 0.0424361789144169 0.0424351387517028 0.0424372191204284 6.4431426417363 6.44314258819552 2452601.042711817 0.583010482070434 119.78676256401 40.4456599287019 -73.2748675583585 151037.798959365 T 19 CATAB v2.0e-lin.ifort 2019-Jul-13 03:56:51 2019-Jul-13 03:56

Alternate Designations
 2001 OS69 = 1999 AV28 
Ephemeris | Orbit Diagram | Orbital Elements | Mission Design | Physical Parameters | Discovery Circumstances | Close-Approach Data ]
ABOUT SSD CREDITS/AWARDS PRIVACY/COPYRIGHT GLOSSARY LINKS
FirstGov 2020-Feb-22 02:10 UT
(server date/time)  
NASA Home Page
Site Manager:   Ryan S. Park
Webmaster  Alan B. Chamberlin